User: anonymous   Login
Location: Godiavel Galaoual
(15.2485°N, 12.6604°W)
Time: 01:52:18
(UTC+00:00)
Language:

SRMSAT - Orbit

View from above orbital plane
View from above orbital plane
View from above satellite
View from above satellite

Ground track
Ground track

The orbit data is extracted from the following two-line orbital elements,

1 37841U 11058D   21206.07272817  .00000314  00000-0  27623-4 0  9995
2 37841  19.9733  73.7018 0011800 347.3662 173.0914 14.10699445504977
Epoch (UTC): 25 July 2021 01:44:43
Eccentricity: 0.0011800
inclination: 19.9733°
perigee height: 848 km
apogee height: 865 km
right ascension of ascending node: 73.7018°
argument of perigee: 347.3662°
revolutions per day: 14.10699445
mean anomaly at epoch: 173.0914°
orbit number at epoch: 50497

The dashed part of the orbit path shows where the satellite is in the earth's shadow,  

DLR